View from above orbital plane
|
View from above satellite
|
Ground track
|
The orbit data is extracted from the following two-line orbital elements,
1 00011U 59001A 21057.69344098 .00000411 00000-0 19759-3 0 9995
2 00011 32.8761 180.8341 1468785 246.8357 97.1067 11.85758589305162
Epoch (UTC): | 26 February 2021 16:38:33 |
Eccentricity: | 0.1468785 |
inclination: | 32.8761° |
perigee height: | 552 km |
apogee height: | 2938 km |
right ascension of ascending node: | 180.8341° |
argument of perigee: | 246.8357° |
revolutions per day: | 11.85758589 |
mean anomaly at epoch: | 97.1067° |
orbit number at epoch: | 30516 |
The dashed part of the orbit path shows where the satellite is in the earth's shadow,
|
|